TimeEST,TemperatureF,Dew PointF,Humidity,Sea Level PressureIn,VisibilityMPH,Wind Direction,Wind SpeedMPH,Gust SpeedMPH,PrecipitationIn,Events,Conditions,WindDirDegrees,DateUTC
12:15 AM,14.4,-0.0,53,30.41,10.0,SE,3.5,-,N/A,,Overcast,130,2013-01-25 05:15:00
12:35 AM,14.5,0.3,53,30.40,10.0,SE,4.6,-,N/A,,Overcast,140,2013-01-25 05:35:00
12:54 AM,14.5,0.9,55,30.39,10.0,SE,4.6,-,N/A,,Overcast,140,2013-01-25 05:54:00
1:15 AM,14.5,1.6,57,30.39,10.0,SE,4.6,-,N/A,,Overcast,140,2013-01-25 06:15:00
1:35 AM,14.5,2.3,58,30.38,10.0,SE,4.6,-,N/A,,Overcast,140,2013-01-25 06:35:00
1:55 AM,14.5,2.7,59,30.37,10.0,SE,4.6,-,N/A,,Overcast,130,2013-01-25 06:55:00
2:14 AM,15.1,3.7,61,30.37,10.0,ESE,4.6,-,N/A,,Overcast,120,2013-01-25 07:14:00
2:34 AM,15.1,4.3,62,30.36,10.0,ESE,6.9,-,N/A,,Overcast,120,2013-01-25 07:34:00
2:55 AM,15.1,4.8,64,30.34,10.0,SE,5.8,-,N/A,,Overcast,130,2013-01-25 07:55:00
3:14 AM,15.1,5.5,66,30.33,10.0,SSE,6.9,-,N/A,,Overcast,150,2013-01-25 08:14:00
3:34 AM,15.1,5.7,66,30.33,10.0,SSE,5.8,-,N/A,,Overcast,150,2013-01-25 08:34:00
3:54 AM,15.3,6.4,68,30.30,10.0,SE,9.2,-,N/A,,Overcast,140,2013-01-25 08:54:00
4:15 AM,15.3,7.9,73,30.28,7.0,SE,6.9,-,N/A,Snow,Light Snow,130,2013-01-25 09:15:00
4:34 AM,15.4,8.2,73,30.26,10.0,SE,8.1,-,N/A,,Mostly Cloudy,130,2013-01-25 09:34:00
4:54 AM,15.4,8.1,73,30.26,10.0,SE,8.1,-,N/A,,Overcast,130,2013-01-25 09:54:00
5:15 AM,15.6,7.9,72,30.24,10.0,SE,5.8,-,N/A,,Overcast,130,2013-01-25 10:15:00
5:34 AM,15.6,7.3,70,30.22,10.0,ESE,6.9,-,N/A,,Overcast,120,2013-01-25 10:34:00
5:55 AM,15.6,7.3,70,30.20,10.0,SE,9.2,-,N/A,,Overcast,140,2013-01-25 10:55:00
6:15 AM,15.6,7.7,71,30.19,10.0,SSE,6.9,-,N/A,,Overcast,150,2013-01-25 11:15:00
6:34 AM,15.6,7.9,72,30.19,10.0,SE,9.2,-,N/A,,Overcast,140,2013-01-25 11:34:00
6:55 AM,15.6,8.1,72,30.18,10.0,SE,5.8,-,N/A,,Overcast,140,2013-01-25 11:55:00
7:14 AM,15.6,8.2,73,30.17,10.0,SE,10.4,-,N/A,,Overcast,140,2013-01-25 12:14:00
7:34 AM,15.6,8.2,73,30.16,10.0,SE,6.9,-,N/A,,Overcast,130,2013-01-25 12:34:00
7:54 AM,16.2,8.8,73,30.16,10.0,SE,5.8,-,N/A,,Overcast,130,2013-01-25 12:54:00
8:34 AM,15.6,10.2,79,30.14,1.2,SE,8.1,-,N/A,Snow,Light Snow,130,2013-01-25 13:34:00
8:55 AM,15.6,10.8,81,30.13,2.5,SE,6.9,-,N/A,Snow,Light Snow,130,2013-01-25 13:55:00
9:14 AM,15.8,10.9,81,30.12,1.0,ESE,6.9,-,N/A,Snow,Light Snow,120,2013-01-25 14:14:00
9:35 AM,16.2,10.9,80,30.12,10.0,SSE,5.8,-,N/A,,Overcast,150,2013-01-25 14:35:00
9:54 AM,16.5,10.2,76,30.11,10.0,SE,5.8,-,N/A,,Overcast,140,2013-01-25 14:54:00
10:14 AM,17.1,9.7,73,30.10,10.0,SSE,8.1,-,N/A,,Overcast,160,2013-01-25 15:14:00
10:35 AM,17.1,11.1,77,30.10,1.8,South,8.1,-,N/A,Snow,Light Snow,170,2013-01-25 15:35:00
10:54 AM,17.1,12.6,82,30.09,1.0,SSE,6.9,-,N/A,Snow,Light Snow,150,2013-01-25 15:54:00
11:14 AM,17.2,12.6,82,30.09,2.0,SE,8.1,-,N/A,Snow,Light Snow,140,2013-01-25 16:14:00
11:35 AM,17.8,12.4,79,30.08,1.5,SSE,9.2,-,N/A,Snow,Light Snow,160,2013-01-25 16:35:00
11:54 AM,18.3,12.9,79,30.07,3.0,SSE,6.9,-,N/A,Snow,Light Snow,150,2013-01-25 16:54:00
12:15 PM,18.9,13.1,78,30.05,4.0,South,8.1,-,N/A,Snow,Light Snow,170,2013-01-25 17:15:00
12:34 PM,19.0,13.3,78,30.04,3.0,South,8.1,-,N/A,Snow,Light Snow,180,2013-01-25 17:34:00
12:54 PM,19.6,13.1,76,30.02,3.0,South,8.1,-,N/A,Snow,Light Snow,180,2013-01-25 17:54:00
1:15 PM,19.8,13.6,77,30.01,3.0,South,8.1,-,N/A,Snow,Light Snow,170,2013-01-25 18:15:00
1:34 PM,19.8,13.5,77,30.00,3.0,South,6.9,-,N/A,Snow,Light Snow,190,2013-01-25 18:34:00
1:55 PM,19.8,13.5,77,29.98,4.0,SSE,8.1,-,N/A,Snow,Light Snow,160,2013-01-25 18:55:00
2:14 PM,19.9,13.8,77,29.98,1.8,South,5.8,-,N/A,Snow,Light Snow,170,2013-01-25 19:14:00
2:35 PM,19.9,14.4,79,29.97,1.5,South,4.6,-,N/A,Snow,Light Snow,170,2013-01-25 19:35:00
2:54 PM,20.1,14.7,80,29.97,2.0,South,5.8,-,N/A,Snow,Light Snow,170,2013-01-25 19:54:00
3:15 PM,19.9,14.9,81,29.96,2.0,South,5.8,-,N/A,Snow,Light Snow,180,2013-01-25 20:15:00
3:35 PM,20.1,15.1,81,29.97,2.0,South,5.8,-,N/A,Snow,Light Snow,180,2013-01-25 20:35:00
3:54 PM,20.1,15.3,81,29.97,5.0,South,6.9,-,N/A,Snow,Light Snow,190,2013-01-25 20:54:00
4:15 PM,20.1,15.4,82,29.95,2.0,SSE,4.6,-,N/A,Snow,Light Snow,150,2013-01-25 21:15:00
4:34 PM,20.1,15.4,82,29.95,3.0,South,6.9,-,N/A,Snow,Light Snow,190,2013-01-25 21:34:00
4:55 PM,20.1,16.0,84,29.96,5.0,South,4.6,-,N/A,Snow,Light Snow,180,2013-01-25 21:55:00
5:15 PM,20.1,16.3,85,29.96,10.0,South,5.8,-,N/A,Snow,Light Snow,180,2013-01-25 22:15:00
5:34 PM,20.1,16.3,85,29.96,4.0,South,4.6,-,N/A,Snow,Light Snow,190,2013-01-25 22:34:00
5:55 PM,20.1,16.5,86,29.96,2.5,SSW,4.6,-,N/A,Snow,Light Snow,200,2013-01-25 22:55:00
6:15 PM,20.3,16.9,87,29.97,2.5,SSW,4.6,-,N/A,Snow,Light Snow,200,2013-01-25 23:15:00
6:34 PM,20.1,17.2,89,29.97,2.0,Calm,Calm,-,N/A,Snow,Light Snow,0,2013-01-25 23:34:00
6:55 PM,20.1,17.4,89,29.97,1.5,SSW,3.5,-,N/A,Snow,Light Snow,200,2013-01-25 23:55:00
7:14 PM,20.1,17.6,90,29.97,2.0,Calm,Calm,-,N/A,Snow,Light Snow,0,2013-01-26 00:14:00
7:34 PM,20.5,17.8,89,29.98,1.8,Calm,Calm,-,N/A,Snow,Light Snow,0,2013-01-26 00:34:00
7:55 PM,20.1,17.8,91,29.97,1.8,Calm,Calm,-,N/A,Snow,Light Snow,0,2013-01-26 00:55:00
8:14 PM,20.1,18.0,91,29.97,2.0,Calm,Calm,-,N/A,Snow,Light Snow,0,2013-01-26 01:14:00
8:35 PM,20.1,18.0,91,29.98,2.0,South,3.5,-,N/A,Snow,Light Snow,190,2013-01-26 01:35:00
8:54 PM,20.5,18.3,91,29.98,2.0,SSW,3.5,-,N/A,Snow,Light Snow,200,2013-01-26 01:54:00
9:15 PM,20.7,18.5,91,29.98,2.5,South,4.6,-,N/A,Snow,Light Snow,180,2013-01-26 02:15:00
9:34 PM,20.7,18.5,91,29.98,3.0,SW,3.5,-,N/A,Snow,Light Snow,220,2013-01-26 02:34:00
9:55 PM,20.7,18.5,91,29.98,2.5,SSW,3.5,-,N/A,Snow,Light Snow,200,2013-01-26 02:55:00
10:14 PM,21.0,18.9,91,29.98,2.0,Calm,Calm,-,N/A,Snow,Light Snow,0,2013-01-26 03:14:00
10:35 PM,21.0,19.0,92,29.98,1.8,Calm,Calm,-,N/A,Snow,Light Snow,0,2013-01-26 03:35:00
10:55 PM,21.4,19.4,92,29.98,1.8,Calm,Calm,-,N/A,Snow,Light Snow,0,2013-01-26 03:55:00
11:14 PM,21.7,19.9,93,29.99,2.5,Calm,Calm,-,N/A,Snow,Light Snow,0,2013-01-26 04:14:00
11:35 PM,22.5,20.5,92,29.99,3.0,Calm,Calm,-,N/A,Snow,Light Snow,0,2013-01-26 04:35:00
11:55 PM,22.5,20.5,92,30.00,2.5,West,3.5,-,N/A,Snow,Light Snow,260,2013-01-26 04:55:00